Tracking 19831 objects as of 24-Aug-2019
HD Live streaming from Space Station
objects crossing your sky now

CZ-4 DEB

Track CZ-4 DEB now!
10-day predictions


NORAD ID: 28068
Int'l Code: 1999-057MY
Perigee: 687.5 km
Apogee: 815.9 km
Inclination: 98.6 °
Period: 99.7 minutes
Semi major axis: 7122 km
RCS: 0.0099 m2 (small)
Launch date: October 14, 1999
Source: People's Republic of China (PRC)
Launch site: Taiyaun Space Center, China (TSC)

Note: This is SATELLITE DEBRIS
aabbcc
Your satellite tracking list
Your tracking list is empty




NASA's NSSDC Master Catalog

Two Line Element Set (TLE):
1 28068U 99057MY  19235.17363163  .00000177  00000-0  62850-4 0  9994
2 28068  98.6320 218.5316 0090121 199.5383 160.2345 14.44225530859486
Source of the keplerian elements: AFSPC